Regional Weather Roundup
Issued by NWS

Home | Current Version | Previous Version | Graphics & Text | Print | Product List | Glossary On
Versions: 1 2 3 4 5 6 7 8 9 10 11 12 13 14 15 16 17 18 19 20 21 22 23 24 25 26 27 28 29 30 31 32 33 34 35 36 37 38 39 40 41 42 43 44 45 46 47 48 49 50
000
ASUS45 KBOU 190007
RWRCO

WEATHER ROUNDUP FOR COLORADO
NATIONAL WEATHER SERVICE DENVER/BOULDER CO
500 PM MST WED JAN 18 2017

NOTE: "FAIR" INDICATES FEW OR NO CLOUDS BELOW 12000 FEET WITH NO
SIGNIFICANT WEATHER AND/OR OBSTRUCTIONS TO VISIBILITY.

COZ001>005-013-030-031-190100-
...NORTHWEST COLORADO...

CITY           SKY/WX    TMP DP  RH WIND       PRES   REMARKS
CRAIG          FAIR      16  10  77 CALM      29.98F
HAYDEN         FAIR      23  12  63 E5        29.96F WCI  17
MEEKER         FAIR      30  20  66 CALM      29.96F
MOUNT WERNER   NOT AVBL
STEAMBOAT SPGS FAIR      24  14  67 CALM      29.97F
WALDEN           N/A    N/A N/A N/A CALM      29.97S
$$

COZ006>008-011-190100-
...WEST CENTRAL VALLEYS...

CITY           SKY/WX    TMP DP  RH WIND       PRES   REMARKS
GRAND JUNCTION FAIR      40  30  67 NW6       29.98F
MONTROSE       FAIR      42  27  55 N3        29.99F
EAGLE          CLEAR     32  19  59 W5        30.00F WCI  27
RIFLE          FAIR      40  25  55 SW5       29.98S
DELTA          FAIR      46  30  53 W5        29.99S
NUCLA          FAIR      43  27  52 CALM      30.03S
$$

COZ017>023-064>068-190100-
...SOUTHWEST COLORADO...

CITY           SKY/WX    TMP DP  RH WIND       PRES   REMARKS
DURANGO        CLOUDY    37  26  64 SW9       29.99S
CORTEZ         FAIR      40  29  64 W9        30.01F
PAGOSA SPRINGS CLOUDY    34  26  73 W7        30.00S WCI  27
TELLURIDE      NOT AVBL
WOLF CREEK PAS CLOUDY    16  16 100 SW6       30.03F WCI   7
$$

COZ009-010-012-014-032>034-037-058>063-190100-
...CENTRAL COLORADO...

CITY           SKY/WX    TMP DP  RH WIND       PRES   REMARKS
ASPEN          FAIR      25  13  60 SW3       29.96S
BUENA VISTA    FAIR      16   8  70 SW7       29.89S WCI   6
COPPER MTN     FAIR      28  14  54 CALM      29.98
BERTHOUD PASS  NOT AVBL
COTTONWOOD PAS FAIR      34  14  44 NW3       29.92S
GUNNISON       FAIR      17  12  80 CALM      30.01F
KREMMLING      FAIR      25  18  74 CALM      30.01F
LEADVILLE      FAIR      26  12  55 NW10      29.92S WCI  16
MONARCH PASS   FAIR      14  10  85 MISG      30.07S
SALIDA         FAIR      35  19  51 W12G18    29.96R WCI  27
SUNLIGHT       FAIR      21  18  86 SW7       30.02S FOG     WCI  13
WILKERSON PASS FAIR      32  -4  21 W3        29.96S
$$

COZ069>075-190100-
...SAN LUIS VALLEY/SANGRE DE CRISTO MOUNTAINS...

CITY           SKY/WX    TMP DP  RH WIND       PRES   REMARKS
ALAMOSA        CLOUDY    25  23  92 SW6       29.98S WCI  18
LA VETA PASS   FOG       19  18  93 NE26G32   29.91S VSB 1   WCI   1
SAGUACHE       FAIR      27  21  80 SE7       29.98S WCI  19
$$

COZ035-036-038>040-190100-
...NORTHERN COLORADO FRONT RANGE...

CITY           SKY/WX    TMP DP  RH WIND       PRES   REMARKS
DENVER INTL AP FAIR      46  21  37 E6        29.75F
DMNS CITY PARK   N/A     48  15  27 N9        29.76F
AURORA         PTCLDY    47  15  27 E5        29.76F
FRONT RANGE AP PTCLDY    45  25  45 CALM      29.77
ERIE MUNI ARPT FAIR      43  22  43 CALM      29.76S
BOULDER MUN AP FAIR      45  21  39 CALM      29.76S
CENTENNIAL     FAIR      47   9  21 CALM      29.77S
BROOMFIELD     PTCLDY    50  10  20 N3        29.78S
FORT COLLINS   FAIR      46  18  31 S5        29.76F
LONGMONT       FAIR      43  23  44 W3        29.78F
$$

COZ041-046-047-076>085-087-088-190100-
...PIKES PEAK/PALMER DIVIDE AND SOUTHERN FOOTHILLS...

CITY           SKY/WX    TMP DP  RH WIND       PRES   REMARKS
COLO. SPRINGS  MOCLDY    39  23  52 SE9       29.81R
A. F. ACADEMY  FAIR      41  15  35 S5        29.79F
SCHRIEVER AFB  NOT AVBL
ELLICOTT       FAIR     N/A N/A N/A MISG      29.79F
FALCON         FAIR      36  20  51 S5        29.81F
FORT CARSON    NOT AVBL
LIMON          FAIR      34  21  59 SE3       29.79R
MONUMENT HILL  FAIR      37  18  44 SW5       29.81F
TRINIDAD       FAIR      35  24  64 W6        29.81F WCI  30
$$

COZ042>045-048>051-090-091-190100-
...NORTHEAST COLORADO...

CITY           SKY/WX    TMP DP  RH WIND       PRES   REMARKS
GREELEY ARPT   FAIR      44  31  60 E3        29.76F
AKRON          FAIR      40  22  48 S6        29.76F
BURLINGTON     FAIR      38  33  82 W5        29.79R
WRAY           NOT AVBL
STERLING       FAIR      37  28  70 SW8       29.75F
HOLYOKE        FAIR      37  32  81 S9        29.77S
FORT MORGAN    FAIR      40  26  58 CALM      29.76F
$$

COZ086-089-092>099-190100-
...SOUTHEAST COLORADO...

CITY           SKY/WX    TMP DP  RH WIND       PRES   REMARKS
PUEBLO         FAIR      42  34  73 E8        29.78F
LA JUNTA       FAIR      35  28  75 CALM      29.79F
LAMAR          FAIR      33  29  85 S7        29.78F WCI  27
SPRINGFIELD      N/A     46  35  65 CALM      29.78F
$$



USA.gov is the U.S. government's official web portal to all federal, state and local government web resources and services.